Location: West Cummington
(42.4920°N, 72.9680°W)
Time: 18:44:48
(UTC-05:00)

ATLAS 2AS CENTAUR R/B - Visible Passes

Search period start: 13 February 2016 00:00
Search period end: 23 February 2016 00:00
Orbit: 908 x 1304 km, 63.7° (Epoch: 13 February)

Date Brightness Start Highest point End Pass type
(mag) Time Alt. Az. Time Alt. Az. Time Alt. Az.
13 Feb 5.6 04:16:50 10° SE 04:20:13 14° E 04:23:42 10° ENE visible
13 Feb 3.4 06:02:25 10° SSW 06:09:44 72° ESE 06:17:42 10° NE visible
14 Feb 4.0 05:18:10 10° S 05:25:08 48° ESE 05:32:39 10° NE visible
15 Feb 4.7 04:34:28 10° SSE 04:40:42 31° ESE 04:47:20 10° NE visible
16 Feb 5.2 03:51:33 10° SE 03:56:25 19° ESE 04:01:30 10° ENE visible
16 Feb 3.0 05:38:50 10° SSW 05:46:16 88° ESE 05:54:21 10° NE visible
17 Feb 5.6 03:11:01 10° ESE 03:12:16 10° E 03:13:33 10° E visible
17 Feb 3.5 04:54:20 10° SSW 05:01:34 61° ESE 05:09:23 10° NE visible
18 Feb 4.1 04:10:19 10° S 04:17:01 40° ESE 04:24:15 10° NE visible
18 Feb 3.2 06:00:31 10° WSW 06:07:51 53° NW 06:15:45 10° NNE visible
19 Feb 4.7 03:27:21 12° SSE 03:32:39 25° ESE 03:38:46 10° NE visible
19 Feb 2.9 05:15:24 10° SW 05:22:52 75° NW 05:30:57 10° NNE visible
20 Feb 5.1 02:45:12 12° SE 02:48:25 15° ESE 02:52:31 10° ENE visible
20 Feb 3.1 04:32:42 21° SSW 04:38:03 77° ESE 04:46:04 10° NE visible
21 Feb 3.6 03:50:17 33° S 03:53:25 51° ESE 04:01:03 10° NE visible
21 Feb 3.4 05:37:47 12° WSW 05:44:37 44° NW 05:52:17 10° NNE visible
22 Feb 4.1 03:07:40 32° SE 03:08:57 33° ESE 03:15:48 10° NE visible
22 Feb 3.0 04:55:10 27° WSW 04:59:31 61° NW 05:07:31 10° NNE visible
